| time (UTC) | temp F | wind direction | speed MPH | gust MPH | rain 1hr in | rain 24hr in | rain mn in | humidity % | barometer mb |
| 20260904023311 | 85 | 172 | 0.0 | 3.0 | 0.00 | 0.04 | 0.03 | 72 | 1013.6 |
| 20260904022806 | 85 | 171 | 1.0 | 3.0 | 0.00 | 0.04 | 0.03 | 72 | 1013.7 |
| 20260904022305 | 85 | 171 | 0.0 | 0.0 | 0.00 | 0.04 | 0.03 | 72 | 1013.7 |
| 20260904021817 | 85 | 172 | 0.0 | 0.0 | 0.00 | 0.04 | 0.03 | 72 | 1013.7 |
| 20260904021314 | 85 | 171 | 0.0 | 2.0 | 0.00 | 0.04 | 0.03 | 72 | 1013.7 |
| 20260904020811 | 85 | 171 | 0.0 | 2.0 | 0.00 | 0.04 | 0.03 | 72 | 1013.6 |
| 20260904020309 | 85 | 172 | 0.0 | 2.0 | 0.00 | 0.04 | 0.03 | 71 | 1013.6 |
| 20260904015805 | 85 | 171 | 0.0 | 2.0 | 0.00 | 0.04 | 0.03 | 71 | 1013.4 |
| 20260904015323 | 85 | 171 | 0.0 | 1.0 | 0.00 | 0.04 | 0.03 | 71 | 1013.4 |
| 20260904014819 | 86 | 171 | 0.0 | 2.0 | 0.00 | 0.04 | 0.03 | 71 | 1013.4 |
| 20260904014313 | 86 | 171 | 0.0 | 2.0 | 0.00 | 0.04 | 0.03 | 70 | 1013.4 |
| 20260904013809 | 86 | 172 | 0.0 | 2.0 | 0.00 | 0.04 | 0.03 | 70 | 1013.3 |
| 20260904013306 | 86 | 173 | 0.0 | 0.0 | 0.00 | 0.04 | 0.03 | 70 | 1013.4 |
| 20260904012803 | 86 | 173 | 0.0 | 0.0 | 0.00 | 0.04 | 0.03 | 70 | 1013.4 |
| 20260904012321 | 86 | 173 | 0.0 | 0.0 | 0.00 | 0.04 | 0.03 | 70 | 1013.3 |
| 20260904011818 | 86 | 173 | 0.0 | 0.0 | 0.00 | 0.04 | 0.03 | 70 | 1013.2 |
| 20260904011315 | 86 | 173 | 0.0 | 0.0 | 0.00 | 0.04 | 0.03 | 70 | 1013.1 |
| 20260904010810 | 86 | 173 | 0.0 | 0.0 | 0.00 | 0.04 | 0.03 | 70 | 1013.2 |
| 20260904010324 | 86 | 173 | 0.0 | 1.0 | 0.00 | 0.04 | 0.03 | 70 | 1013.2 |
| 20260904005819 | 86 | 173 | 0.0 | 2.0 | 0.00 | 0.04 | 0.03 | 70 | 1013.3 |
| 20260904005316 | 87 | 165 | 1.0 | 3.0 | 0.00 | 0.04 | 0.03 | 69 | 1013.3 |
| 20260904004811 | 87 | 157 | 0.0 | 3.0 | 0.00 | 0.04 | 0.03 | 69 | 1013.3 |
| 20260904004328 | 87 | 157 | 1.0 | 3.0 | 0.00 | 0.04 | 0.03 | 69 | 1013.4 |
| 20260904003804 | 87 | 157 | 0.0 | 2.0 | 0.00 | 0.04 | 0.03 | 68 | 1013.3 |
| 20260904003321 | 87 | 157 | 0.0 | 2.0 | 0.00 | 0.04 | 0.03 | 68 | 1013.3 |
| 20260904002834 | 88 | 153 | 0.0 | 2.0 | 0.00 | 0.04 | 0.03 | 67 | 1013.2 |
| 20260904002308 | 88 | 153 | 0.0 | 3.0 | 0.00 | 0.04 | 0.03 | 67 | 1013.2 |
| 20260904001805 | 88 | 153 | 1.0 | 3.0 | 0.00 | 0.04 | 0.03 | 67 | 1013.2 |
| 20260904001320 | 88 | 119 | 0.0 | 3.0 | 0.00 | 0.04 | 0.03 | 66 | 1013.3 |
| 20260904000836 | 88 | 119 | 0.0 | 3.0 | 0.00 | 0.04 | 0.03 | 66 | 1013.2 |
| 20260904000303 | 88 | 119 | 0.0 | 4.0 | 0.00 | 0.04 | 0.03 | 66 | 1013.3 |
| 20260903235820 | 89 | 133 | 2.0 | 4.0 | 0.00 | 0.04 | 0.03 | 65 | 1013.2 |
| 20260903235315 | 89 | 112 | 0.0 | 5.0 | 0.00 | 0.04 | 0.03 | 65 | 1013.2 |
| 20260903234811 | 89 | 113 | 1.0 | 5.0 | 0.00 | 0.04 | 0.03 | 64 | 1013.2 |
| 20260903234307 | 90 | 137 | 1.0 | 3.0 | 0.00 | 0.04 | 0.03 | 64 | 1013.1 |
| 20260903233821 | 90 | 131 | 1.0 | 3.0 | 0.00 | 0.04 | 0.03 | 64 | 1013.1 |
| 20260903233316 | 90 | 130 | 1.0 | 3.0 | 0.00 | 0.04 | 0.03 | 64 | 1013.1 |
| 20260903232814 | 90 | 98 | 1.0 | 4.0 | 0.00 | 0.04 | 0.03 | 64 | 1013.1 |
| 20260903232312 | 90 | 173 | 1.0 | 4.0 | 0.00 | 0.04 | 0.03 | 64 | 1012.9 |
| 20260903231810 | 90 | 211 | 2.0 | 5.0 | 0.00 | 0.05 | 0.03 | 63 | 1012.9 |
| 20260903231305 | 90 | 109 | 2.0 | 6.0 | 0.00 | 0.05 | 0.03 | 62 | 1012.8 |
| 20260903230821 | 90 | 148 | 3.0 | 6.0 | 0.00 | 0.05 | 0.03 | 62 | 1012.7 |
| 20260903230318 | 90 | 180 | 1.0 | 7.0 | 0.00 | 0.05 | 0.03 | 61 | 1012.6 |
| 20260903225806 | 91 | 147 | 2.0 | 7.0 | 0.00 | 0.05 | 0.03 | 60 | 1012.6 |
| 20260903225306 | 91 | 96 | 1.0 | 3.0 | 0.00 | 0.05 | 0.03 | 60 | 1012.6 |
| 20260903224819 | 90 | 98 | 0.0 | 3.0 | 0.00 | 0.05 | 0.03 | 61 | 1012.7 |
| 20260903224317 | 90 | 155 | 1.0 | 3.0 | 0.00 | 0.05 | 0.03 | 60 | 1012.6 |
| 20260903223813 | 90 | 162 | 1.0 | 4.0 | 0.01 | 0.05 | 0.03 | 60 | 1012.5 |
| 20260903223309 | 91 | 155 | 1.0 | 3.0 | 0.01 | 0.05 | 0.03 | 59 | 1012.6 |
| 20260903222805 | 91 | 152 | 2.0 | 6.0 | 0.01 | 0.05 | 0.03 | 59 | 1012.7 |
| 20260903222321 | 91 | 148 | 2.0 | 6.0 | 0.01 | 0.05 | 0.03 | 59 | 1012.7 |
| 20260903221817 | 91 | 74 | 1.0 | 5.0 | 0.01 | 0.05 | 0.03 | 58 | 1012.7 |
| 20260903221307 | 91 | 161 | 2.0 | 7.0 | 0.01 | 0.05 | 0.03 | 57 | 1012.7 |
| 20260903220823 | 91 | 83 | 3.0 | 7.0 | 0.01 | 0.05 | 0.03 | 57 | 1012.8 |
| 20260903220320 | 92 | 82 | 1.0 | 4.0 | 0.01 | 0.05 | 0.03 | 57 | 1012.8 |
| 20260903215816 | 92 | 155 | 2.0 | 4.0 | 0.01 | 0.05 | 0.03 | 57 | 1012.9 |
| 20260903215310 | 91 | 96 | 0.0 | 5.0 | 0.01 | 0.05 | 0.03 | 59 | 1012.9 |
| 20260903214805 | 91 | 57 | 3.0 | 8.0 | 0.01 | 0.05 | 0.03 | 58 | 1013.0 |
| 20260903214302 | 91 | 77 | 2.0 | 8.0 | 0.01 | 0.05 | 0.03 | 60 | 1012.9 |
| 20260903213818 | 90 | 157 | 0.0 | 3.0 | 0.00 | 0.04 | 0.02 | 62 | 1013.0 |
| 20260903213314 | 90 | 157 | 0.0 | 3.0 | 0.00 | 0.04 | 0.02 | 62 | 1013.1 |
| 20260903212831 | 90 | 181 | 1.0 | 3.0 | 0.00 | 0.04 | 0.02 | 63 | 1013.1 |
| 20260903212323 | 90 | 171 | 1.0 | 3.0 | 0.00 | 0.04 | 0.02 | 64 | 1013.1 |
| 20260903211816 | 90 | 250 | 0.0 | 5.0 | 0.00 | 0.04 | 0.02 | 65 | 1013.0 |
| 20260903211311 | 90 | 232 | 1.0 | 5.0 | 0.00 | 0.04 | 0.02 | 64 | 1013.0 |
| 20260903210827 | 90 | 206 | 0.0 | 7.0 | 0.00 | 0.04 | 0.02 | 64 | 1013.1 |
| 20260903210303 | 90 | 231 | 2.0 | 7.0 | 0.00 | 0.04 | 0.02 | 62 | 1013.2 |
| 20260903205818 | 91 | 208 | 3.0 | 7.0 | 0.00 | 0.04 | 0.02 | 61 | 1013.2 |
| 20260903205334 | 92 | 157 | 1.0 | 4.0 | 0.00 | 0.04 | 0.02 | 57 | 1013.1 |
| 20260903204309 | 92 | 146 | 2.0 | 3.0 | 0.00 | 0.04 | 0.02 | 57 | 1013.2 |
| 20260903203805 | 92 | 95 | 1.0 | 3.0 | 0.00 | 0.04 | 0.02 | 57 | 1013.2 |
| 20260903203321 | 92 | 217 | 0.0 | 3.0 | 0.00 | 0.04 | 0.02 | 60 | 1013.2 |
| 20260903202817 | 92 | 218 | 0.0 | 5.0 | 0.00 | 0.04 | 0.02 | 59 | 1013.1 |
| 20260903202314 | 93 | 192 | 2.0 | 7.0 | 0.00 | 0.04 | 0.02 | 58 | 1013.1 |
| 20260903201811 | 94 | 119 | 3.0 | 7.0 | 0.00 | 0.04 | 0.02 | 55 | 1013.2 |
| 20260903201308 | 94 | 101 | 1.0 | 5.0 | 0.00 | 0.04 | 0.02 | 49 | 1013.3 |
| 20260903200825 | 95 | 82 | 0.0 | 4.0 | 0.00 | 0.04 | 0.02 | 51 | 1013.3 |
| 20260903200340 | 95 | 82 | 1.0 | 5.0 | 0.00 | 0.04 | 0.02 | 51 | 1013.5 |
| 20260903195815 | 95 | 79 | 0.0 | 4.0 | 0.00 | 0.04 | 0.02 | 51 | 1013.4 |
| 20260903195311 | 96 | 79 | 1.0 | 4.0 | 0.00 | 0.04 | 0.02 | 52 | 1013.4 |
| 20260903194805 | 96 | 193 | 1.0 | 6.0 | 0.00 | 0.04 | 0.02 | 51 | 1013.4 |
| 20260903194347 | 96 | 123 | 1.0 | 6.0 | 0.00 | 0.04 | 0.02 | 51 | 1013.4 |
| 20260903193821 | 95 | 134 | 1.0 | 3.0 | 0.00 | 0.04 | 0.02 | 53 | 1013.4 |
| 20260903193318 | 95 | 173 | 0.0 | 5.0 | 0.00 | 0.04 | 0.02 | 54 | 1013.5 |
| 20260903192814 | 94 | 153 | 0.0 | 7.0 | 0.00 | 0.04 | 0.02 | 54 | 1013.6 |
| 20260903192330 | 94 | 113 | 1.0 | 7.0 | 0.00 | 0.04 | 0.02 | 56 | 1013.7 |
| 20260903191825 | 95 | 90 | 2.0 | 7.0 | 0.00 | 0.04 | 0.02 | 55 | 1013.7 |
| 20260903191322 | 95 | 71 | 2.0 | 7.0 | 0.00 | 0.04 | 0.02 | 54 | 1013.8 |
| 20260903190314 | 94 | 85 | 1.0 | 7.0 | 0.00 | 0.04 | 0.02 | 56 | 1014.0 |
| 20260903185808 | 93 | 76 | 2.0 | 8.0 | 0.00 | 0.04 | 0.02 | 54 | 1014.1 |
| 20260903185306 | 92 | 168 | 2.0 | 8.0 | 0.00 | 0.04 | 0.02 | 57 | 1014.1 |
| 20260903184842 | 91 | 151 | 2.0 | 7.0 | 0.00 | 0.04 | 0.02 | 61 | 1014.2 |
| 20260903184336 | 91 | 49 | 1.0 | 5.0 | 0.00 | 0.04 | 0.02 | 65 | 1014.2 |
| 20260903183831 | 91 | 16 | 1.0 | 5.0 | 0.00 | 0.04 | 0.02 | 65 | 1014.3 |
| 20260903183306 | 91 | 24 | 1.0 | 5.0 | 0.00 | 0.04 | 0.02 | 64 | 1014.4 |
| 20260903182821 | 92 | 336 | 1.0 | 5.0 | 0.00 | 0.04 | 0.02 | 63 | 1014.4 |
| 20260903182315 | 93 | 85 | 1.0 | 5.0 | 0.00 | 0.04 | 0.02 | 62 | 1014.5 |
| 20260903181812 | 93 | 28 | 2.0 | 6.0 | 0.00 | 0.05 | 0.02 | 63 | 1014.5 |
| 20260903181309 | 93 | 19 | 1.0 | 6.0 | 0.00 | 0.05 | 0.02 | 62 | 1014.5 |
| 20260903180806 | 93 | 12 | 1.0 | 4.0 | 0.00 | 0.05 | 0.02 | 63 | 1014.6 |
| 20260903180303 | 92 | 40 | 1.0 | 7.0 | 0.00 | 0.05 | 0.02 | 63 | 1014.6 |
| 20260903175820 | 92 | 350 | 1.0 | 7.0 | 0.00 | 0.05 | 0.02 | 63 | 1014.5 |
| 20260903175317 | 93 | 57 | 1.0 | 5.0 | 0.00 | 0.05 | 0.02 | 63 | 1014.7 |
| 20260903174812 | 93 | 334 | 2.0 | 5.0 | 0.00 | 0.05 | 0.02 | 62 | 1014.8 |
| 20260903174328 | 93 | 58 | 1.0 | 5.0 | 0.00 | 0.05 | 0.02 | 62 | 1014.8 |
| 20260903173820 | 93 | 360 | 1.0 | 6.0 | 0.00 | 0.05 | 0.02 | 63 | 1014.9 |
| 20260903173313 | 92 | 351 | 1.0 | 6.0 | 0.00 | 0.05 | 0.02 | 64 | 1015.0 |
| 20260903172819 | 92 | 32 | 1.0 | 9.0 | 0.00 | 0.05 | 0.02 | 64 | 1015.1 |
| 20260903171810 | 92 | 19 | 0.0 | 7.0 | 0.00 | 0.05 | 0.02 | 64 | 1015.2 |
| 20260903171311 | 91 | 344 | 2.0 | 7.0 | 0.00 | 0.05 | 0.02 | 64 | 1015.3 |
| 20260903170811 | 92 | 338 | 3.0 | 9.0 | 0.00 | 0.05 | 0.02 | 64 | 1015.4 |
| 20260903170307 | 92 | 53 | 1.0 | 9.0 | 0.00 | 0.05 | 0.02 | 63 | 1015.4 |
| 20260903165816 | 91 | 46 | 1.0 | 8.0 | 0.00 | 0.05 | 0.02 | 64 | 1015.4 |
| 20260903165306 | 91 | 49 | 1.0 | 8.0 | 0.00 | 0.05 | 0.02 | 65 | 1015.5 |
| 20260903164834 | 91 | 337 | 3.0 | 8.0 | 0.00 | 0.05 | 0.02 | 64 | 1015.6 |
| 20260903164342 | 91 | 113 | 2.0 | 8.0 | 0.00 | 0.05 | 0.02 | 65 | 1015.6 |
| 20260903163329 | 91 | 40 | 1.0 | 6.0 | 0.01 | 0.05 | 0.02 | 66 | 1015.7 |
| 20260903162837 | 91 | 19 | 1.0 | 6.0 | 0.01 | 0.05 | 0.02 | 65 | 1015.7 |
| 20260903162308 | 91 | 49 | 2.0 | 6.0 | 0.01 | 0.05 | 0.02 | 64 | 1015.7 |
| 20260903161818 | 90 | 37 | 1.0 | 6.0 | 0.01 | 0.05 | 0.02 | 67 | 1015.7 |
| 20260903161306 | 91 | 355 | 2.0 | 6.0 | 0.01 | 0.05 | 0.02 | 66 | 1015.7 |
| 20260903160815 | 91 | 32 | 1.0 | 4.0 | 0.01 | 0.05 | 0.02 | 67 | 1015.7 |
| 20260903160304 | 90 | 5 | 1.0 | 4.0 | 0.01 | 0.05 | 0.02 | 68 | 1015.7 |
| 20260903155813 | 90 | 45 | 0.0 | 4.0 | 0.01 | 0.05 | 0.02 | 67 | 1015.6 |
| 20260903155322 | 90 | 321 | 0.0 | 3.0 | 0.01 | 0.05 | 0.02 | 68 | 1015.5 |
| 20260903154811 | 89 | 52 | 1.0 | 3.0 | 0.01 | 0.05 | 0.02 | 68 | 1015.5 |
| 20260903154304 | 89 | 5 | 0.0 | 6.0 | 0.01 | 0.05 | 0.02 | 69 | 1015.5 |
| 20260903153833 | 89 | 18 | 1.0 | 6.0 | 0.01 | 0.05 | 0.02 | 69 | 1015.5 |
| 20260903153341 | 89 | 16 | 0.0 | 5.0 | 0.00 | 0.04 | 0.01 | 69 | 1015.4 |
| 20260903152829 | 89 | 38 | 1.0 | 5.0 | 0.00 | 0.04 | 0.01 | 70 | 1015.4 |
| 20260903151815 | 89 | 355 | 0.0 | 5.0 | 0.00 | 0.04 | 0.01 | 70 | 1015.3 |
| 20260903151304 | 88 | 26 | 0.0 | 5.0 | 0.00 | 0.04 | 0.01 | 71 | 1015.3 |
| 20260903150812 | 88 | 20 | 1.0 | 6.0 | 0.00 | 0.04 | 0.01 | 71 | 1015.3 |
| 20260903150320 | 88 | 44 | 1.0 | 6.0 | 0.00 | 0.04 | 0.01 | 71 | 1015.3 |
| 20260903145808 | 88 | 34 | 0.0 | 6.0 | 0.00 | 0.04 | 0.01 | 71 | 1015.3 |
| 20260903145317 | 88 | 24 | 0.0 | 5.0 | 0.00 | 0.04 | 0.01 | 70 | 1015.3 |
| 20260903144808 | 88 | 360 | 1.0 | 5.0 | 0.00 | 0.04 | 0.01 | 71 | 1015.3 |
| 20260903144318 | 88 | 350 | 0.0 | 4.0 | 0.00 | 0.04 | 0.01 | 71 | 1015.3 |
| 20260903143806 | 88 | 17 | 1.0 | 5.0 | 0.00 | 0.04 | 0.01 | 71 | 1015.3 |
| 20260903143314 | 89 | 32 | 0.0 | 2.0 | 0.00 | 0.04 | 0.01 | 71 | 1015.3 |
| 20260903142823 | 89 | 25 | 0.0 | 5.0 | 0.00 | 0.04 | 0.01 | 70 | 1015.4 |
| 20260903142331 | 90 | 5 | 1.0 | 5.0 | 0.00 | 0.04 | 0.01 | 69 | 1015.4 |
| 20260903141819 | 90 | 75 | 0.0 | 0.0 | 0.00 | 0.05 | 0.01 | 67 | 1015.4 |
| 20260903141308 | 89 | 50 | 0.0 | 0.0 | 0.00 | 0.05 | 0.01 | 67 | 1015.3 |
| 20260903140857 | 89 | 88 | 0.0 | 0.0 | 0.00 | 0.05 | 0.01 | 68 | 1015.3 |
| 20260903140323 | 89 | 88 | 0.0 | 0.0 | 0.00 | 0.05 | 0.01 | 66 | 1015.4 |
| 20260903135811 | 89 | 109 | 0.0 | 1.0 | 0.00 | 0.05 | 0.01 | 67 | 1015.4 |
| 20260903135306 | 89 | 80 | 0.0 | 2.0 | 0.00 | 0.05 | 0.01 | 68 | 1015.4 |
| 20260903134812 | 89 | 76 | 0.0 | 2.0 | 0.00 | 0.05 | 0.01 | 67 | 1015.4 |
| 20260903134340 | 89 | 33 | 0.0 | 0.0 | 0.00 | 0.05 | 0.01 | 67 | 1015.5 |
| 20260903133808 | 89 | 33 | 0.0 | 0.0 | 0.00 | 0.05 | 0.01 | 66 | 1015.5 |
| 20260903133317 | 89 | 173 | 0.0 | 0.0 | 0.00 | 0.05 | 0.01 | 68 | 1015.4 |
| 20260903132805 | 88 | 173 | 0.0 | 0.0 | 0.00 | 0.05 | 0.01 | 69 | 1015.4 |
| 20260903132335 | 88 | 173 | 0.0 | 0.0 | 0.00 | 0.05 | 0.01 | 69 | 1015.4 |
| 20260903131823 | 88 | 173 | 0.0 | 0.0 | 0.00 | 0.05 | 0.01 | 70 | 1015.4 |
| 20260903130803 | 87 | 173 | 0.0 | 0.0 | 0.00 | 0.05 | 0.01 | 73 | 1015.4 |
| 20260903130332 | 86 | 173 | 0.0 | 0.0 | 0.00 | 0.05 | 0.01 | 74 | 1015.3 |
| 20260903125803 | 86 | 173 | 0.0 | 0.0 | 0.00 | 0.05 | 0.01 | 76 | 1015.4 |
| 20260903125312 | 85 | 173 | 0.0 | 0.0 | 0.00 | 0.05 | 0.01 | 77 | 1015.3 |
| 20260903124821 | 84 | 173 | 0.0 | 0.0 | 0.00 | 0.05 | 0.01 | 79 | 1015.3 |
| 20260903124330 | 83 | 173 | 0.0 | 0.0 | 0.00 | 0.05 | 0.01 | 83 | 1015.3 |
| 20260903123817 | 82 | 173 | 0.0 | 0.0 | 0.00 | 0.05 | 0.01 | 85 | 1015.3 |
| 20260903123305 | 81 | 173 | 0.0 | 0.0 | 0.00 | 0.05 | 0.01 | 86 | 1015.2 |
| 20260903122813 | 80 | 173 | 0.0 | 0.0 | 0.00 | 0.05 | 0.01 | 87 | 1015.2 |
| 20260903122321 | 79 | 173 | 0.0 | 0.0 | 0.00 | 0.05 | 0.01 | 89 | 1015.3 |
| 20260903121810 | 79 | 173 | 0.0 | 0.0 | 0.00 | 0.05 | 0.01 | 89 | 1015.2 |
| 20260903121318 | 78 | 173 | 0.0 | 0.0 | 0.00 | 0.05 | 0.01 | 88 | 1015.2 |
| 20260903120826 | 78 | 173 | 0.0 | 0.0 | 0.00 | 0.05 | 0.01 | 88 | 1015.1 |
| 20260903120317 | 78 | 173 | 0.0 | 0.0 | 0.00 | 0.05 | 0.01 | 88 | 1015.1 |
| 20260903115806 | 78 | 173 | 0.0 | 0.0 | 0.00 | 0.05 | 0.01 | 88 | 1015.1 |
| 20260903115314 | 78 | 173 | 0.0 | 0.0 | 0.00 | 0.05 | 0.01 | 88 | 1015.1 |
| 20260903114823 | 78 | 173 | 0.0 | 0.0 | 0.00 | 0.05 | 0.01 | 88 | 1015.1 |
| 20260903114312 | 78 | 173 | 0.0 | 0.0 | 0.00 | 0.05 | 0.01 | 88 | 1015.0 |
| 20260903113821 | 78 | 173 | 0.0 | 0.0 | 0.00 | 0.05 | 0.01 | 88 | 1015.0 |
| 20260903113309 | 78 | 173 | 0.0 | 0.0 | 0.00 | 0.05 | 0.01 | 87 | 1014.9 |
| 20260903112817 | 78 | 173 | 0.0 | 0.0 | 0.00 | 0.05 | 0.01 | 87 | 1014.8 |
| 20260903112306 | 78 | 173 | 0.0 | 0.0 | 0.00 | 0.05 | 0.01 | 87 | 1014.7 |
| 20260903111818 | 78 | 173 | 0.0 | 0.0 | 0.00 | 0.05 | 0.01 | 88 | 1014.6 |
| 20260903111307 | 78 | 173 | 0.0 | 0.0 | 0.00 | 0.05 | 0.01 | 88 | 1014.5 |
| 20260903110816 | 78 | 173 | 0.0 | 0.0 | 0.00 | 0.05 | 0.01 | 87 | 1014.4 |
| 20260903110304 | 78 | 173 | 0.0 | 0.0 | 0.00 | 0.05 | 0.01 | 87 | 1014.4 |
| 20260903105812 | 78 | 173 | 0.0 | 0.0 | 0.01 | 0.05 | 0.01 | 87 | 1014.4 |
| 20260903105320 | 78 | 173 | 0.0 | 0.0 | 0.01 | 0.05 | 0.01 | 87 | 1014.5 |
| 20260903104808 | 78 | 173 | 0.0 | 0.0 | 0.01 | 0.05 | 0.01 | 87 | 1014.4 |
| 20260903104337 | 78 | 173 | 0.0 | 0.0 | 0.01 | 0.05 | 0.01 | 87 | 1014.4 |
| 20260903103805 | 78 | 173 | 0.0 | 0.0 | 0.01 | 0.05 | 0.01 | 87 | 1014.4 |
| 20260903103314 | 78 | 173 | 0.0 | 0.0 | 0.01 | 0.05 | 0.01 | 87 | 1014.4 |
| 20260903102806 | 78 | 173 | 0.0 | 0.0 | 0.01 | 0.05 | 0.01 | 87 | 1014.3 |
| 20260903102314 | 78 | 173 | 0.0 | 0.0 | 0.01 | 0.05 | 0.01 | 87 | 1014.3 |
| 20260903101823 | 78 | 173 | 0.0 | 0.0 | 0.01 | 0.05 | 0.01 | 87 | 1014.3 |
| 20260903101311 | 78 | 173 | 0.0 | 0.0 | 0.01 | 0.05 | 0.01 | 87 | 1014.3 |
| 20260903100821 | 78 | 173 | 0.0 | 0.0 | 0.01 | 0.05 | 0.01 | 87 | 1014.3 |
| 20260903100329 | 78 | 173 | 0.0 | 0.0 | 0.01 | 0.05 | 0.01 | 87 | 1014.2 |
| 20260903095817 | 78 | 173 | 0.0 | 0.0 | 0.00 | 0.04 | 0.00 | 87 | 1014.2 |
| 20260903095306 | 78 | 173 | 0.0 | 0.0 | 0.00 | 0.04 | 0.00 | 87 | 1014.2 |
| 20260903094814 | 78 | 173 | 0.0 | 0.0 | 0.00 | 0.04 | 0.00 | 87 | 1014.2 |
| 20260903094306 | 78 | 173 | 0.0 | 0.0 | 0.00 | 0.04 | 0.00 | 87 | 1014.2 |
| 20260903093815 | 78 | 173 | 0.0 | 0.0 | 0.00 | 0.04 | 0.00 | 87 | 1014.1 |
| 20260903093304 | 78 | 173 | 0.0 | 0.0 | 0.00 | 0.04 | 0.00 | 86 | 1014.1 |
| 20260903092832 | 78 | 173 | 0.0 | 0.0 | 0.00 | 0.04 | 0.00 | 86 | 1014.1 |
| 20260903091809 | 78 | 173 | 0.0 | 0.0 | 0.00 | 0.05 | 0.00 | 87 | 1014.2 |
| 20260903091318 | 78 | 173 | 0.0 | 0.0 | 0.00 | 0.05 | 0.00 | 86 | 1014.3 |
| 20260903090806 | 78 | 173 | 0.0 | 0.0 | 0.00 | 0.05 | 0.00 | 86 | 1014.2 |
| 20260903090336 | 78 | 173 | 0.0 | 0.0 | 0.00 | 0.05 | 0.00 | 86 | 1014.2 |
| 20260903085843 | 78 | 173 | 0.0 | 0.0 | 0.00 | 0.05 | 0.00 | 86 | 1014.1 |
| 20260903085311 | 78 | 173 | 0.0 | 0.0 | 0.00 | 0.05 | 0.00 | 86 | 1014.1 |
| 20260903084820 | 78 | 173 | 0.0 | 0.0 | 0.00 | 0.05 | 0.00 | 86 | 1014.2 |
| 20260903084311 | 79 | 173 | 0.0 | 0.0 | 0.00 | 0.05 | 0.00 | 86 | 1014.2 |
| 20260903083840 | 79 | 173 | 0.0 | 0.0 | 0.00 | 0.05 | 0.00 | 86 | 1014.1 |
| 20260903083307 | 79 | 173 | 0.0 | 0.0 | 0.00 | 0.05 | 0.00 | 86 | 1014.1 |
| 20260903082816 | 79 | 173 | 0.0 | 0.0 | 0.00 | 0.05 | 0.00 | 86 | 1014.2 |
| 20260903082306 | 79 | 173 | 0.0 | 0.0 | 0.00 | 0.05 | 0.00 | 85 | 1014.3 |
| 20260903081813 | 79 | 173 | 0.0 | 0.0 | 0.00 | 0.05 | 0.00 | 85 | 1014.2 |
| 20260903081322 | 79 | 173 | 0.0 | 0.0 | 0.00 | 0.05 | 0.00 | 85 | 1014.2 |
| 20260903080810 | 79 | 173 | 0.0 | 0.0 | 0.00 | 0.05 | 0.00 | 85 | 1014.2 |
| 20260903080319 | 79 | 173 | 0.0 | 0.0 | 0.00 | 0.05 | 0.00 | 85 | 1014.1 |
| 20260903075812 | 79 | 173 | 0.0 | 0.0 | 0.00 | 0.05 | 0.00 | 85 | 1014.1 |
| 20260903075341 | 79 | 173 | 0.0 | 0.0 | 0.00 | 0.05 | 0.00 | 85 | 1014.1 |
| 20260903074808 | 79 | 173 | 0.0 | 0.0 | 0.00 | 0.05 | 0.00 | 85 | 1014.1 |
| 20260903074316 | 79 | 173 | 0.0 | 0.0 | 0.00 | 0.05 | 0.00 | 85 | 1014.2 |
| 20260903073804 | 79 | 173 | 0.0 | 0.0 | 0.00 | 0.05 | 0.00 | 85 | 1014.2 |
| 20260903073313 | 79 | 173 | 0.0 | 0.0 | 0.00 | 0.05 | 0.00 | 85 | 1014.2 |
| 20260903072842 | 79 | 173 | 0.0 | 0.0 | 0.00 | 0.05 | 0.00 | 84 | 1014.2 |
| 20260903072311 | 79 | 173 | 0.0 | 0.0 | 0.00 | 0.05 | 0.00 | 84 | 1014.3 |
| 20260903071820 | 79 | 173 | 0.0 | 0.0 | 0.00 | 0.05 | 0.05 | 84 | 1014.3 |
| 20260903071329 | 79 | 173 | 0.0 | 0.0 | 0.00 | 0.05 | 0.05 | 84 | 1014.4 |
| 20260903070817 | 79 | 173 | 0.0 | 0.0 | 0.00 | 0.05 | 0.05 | 84 | 1014.6 |
| 20260903070309 | 79 | 173 | 0.0 | 0.0 | 0.00 | 0.05 | 0.05 | 84 | 1014.6 |
| 20260903065817 | 79 | 173 | 0.0 | 0.0 | 0.00 | 0.05 | 0.05 | 84 | 1014.6 |
| 20260903065326 | 79 | 173 | 0.0 | 0.0 | 0.00 | 0.05 | 0.05 | 84 | 1014.7 |
| 20260903064834 | 80 | 173 | 0.0 | 0.0 | 0.00 | 0.05 | 0.05 | 84 | 1014.7 |
| 20260903064321 | 80 | 173 | 0.0 | 0.0 | 0.00 | 0.05 | 0.05 | 84 | 1014.7 |
| 20260903063809 | 80 | 173 | 0.0 | 0.0 | 0.00 | 0.05 | 0.05 | 84 | 1014.7 |
| 20260903063317 | 80 | 173 | 0.0 | 0.0 | 0.00 | 0.05 | 0.05 | 83 | 1014.8 |
| 20260903062805 | 80 | 173 | 0.0 | 0.0 | 0.00 | 0.05 | 0.05 | 83 | 1014.9 |
| 20260903062335 | 80 | 173 | 0.0 | 0.0 | 0.00 | 0.05 | 0.05 | 83 | 1014.9 |
| 20260903061822 | 80 | 173 | 0.0 | 0.0 | 0.00 | 0.05 | 0.05 | 83 | 1014.9 |
| 20260903061309 | 80 | 173 | 0.0 | 0.0 | 0.00 | 0.05 | 0.05 | 83 | 1015.0 |
| 20260903060818 | 80 | 173 | 0.0 | 0.0 | 0.00 | 0.05 | 0.05 | 83 | 1014.9 |
| 20260903060311 | 80 | 173 | 0.0 | 0.0 | 0.00 | 0.05 | 0.05 | 83 | 1015.0 |
| 20260903055820 | 80 | 173 | 0.0 | 0.0 | 0.00 | 0.05 | 0.05 | 82 | 1014.9 |
| 20260903055308 | 80 | 173 | 0.0 | 0.0 | 0.00 | 0.05 | 0.05 | 82 | 1015.0 |
| 20260903054817 | 80 | 173 | 0.0 | 0.0 | 0.00 | 0.05 | 0.05 | 82 | 1015.1 |
| 20260903054306 | 80 | 173 | 0.0 | 0.0 | 0.00 | 0.05 | 0.05 | 82 | 1015.1 |
| 20260903053814 | 80 | 173 | 0.0 | 0.0 | 0.00 | 0.05 | 0.05 | 82 | 1015.1 |
| 20260903053323 | 80 | 173 | 0.0 | 0.0 | 0.00 | 0.05 | 0.05 | 82 | 1015.1 |
| 20260903052811 | 81 | 173 | 0.0 | 0.0 | 0.00 | 0.05 | 0.05 | 81 | 1015.1 |
| 20260903052340 | 81 | 173 | 0.0 | 0.0 | 0.00 | 0.05 | 0.05 | 81 | 1015.2 |
| 20260903051828 | 81 | 173 | 0.0 | 0.0 | 0.00 | 0.05 | 0.05 | 81 | 1015.2 |
| 20260903051335 | 81 | 173 | 0.0 | 0.0 | 0.00 | 0.05 | 0.05 | 81 | 1015.2 |
| 20260903050806 | 81 | 173 | 0.0 | 0.0 | 0.00 | 0.05 | 0.05 | 81 | 1015.2 |
| 20260903045813 | 81 | 173 | 0.0 | 0.0 | 0.01 | 0.05 | 0.05 | 80 | 1015.2 |
| 20260903045321 | 81 | 173 | 0.0 | 0.0 | 0.01 | 0.05 | 0.05 | 80 | 1015.3 |
| 20260903044810 | 81 | 173 | 0.0 | 0.0 | 0.01 | 0.05 | 0.05 | 80 | 1015.3 |
| 20260903044318 | 81 | 173 | 0.0 | 0.0 | 0.01 | 0.05 | 0.05 | 80 | 1015.4 |
| 20260903043807 | 81 | 173 | 0.0 | 0.0 | 0.01 | 0.05 | 0.05 | 80 | 1015.4 |
| 20260903043316 | 81 | 173 | 0.0 | 0.0 | 0.01 | 0.05 | 0.05 | 79 | 1015.5 |
| 20260903042808 | 81 | 173 | 0.0 | 0.0 | 0.01 | 0.05 | 0.05 | 79 | 1015.4 |
| 20260903042317 | 82 | 173 | 0.0 | 0.0 | 0.01 | 0.05 | 0.05 | 79 | 1015.4 |
| 20260903041805 | 82 | 173 | 0.0 | 0.0 | 0.01 | 0.06 | 0.05 | 79 | 1015.4 |
| 20260903041314 | 82 | 173 | 0.0 | 0.0 | 0.01 | 0.06 | 0.05 | 79 | 1015.3 |
| 20260903040823 | 82 | 173 | 0.0 | 0.0 | 0.01 | 0.06 | 0.05 | 79 | 1015.4 |
| 20260903040311 | 82 | 173 | 0.0 | 0.0 | 0.01 | 0.06 | 0.05 | 78 | 1015.4 |
| 20260903035841 | 82 | 173 | 0.0 | 0.0 | 0.00 | 0.05 | 0.04 | 78 | 1015.4 |
| 20260903035308 | 82 | 173 | 0.0 | 0.0 | 0.00 | 0.05 | 0.04 | 78 | 1015.5 |
| 20260903034309 | 82 | 173 | 0.0 | 0.0 | 0.00 | 0.05 | 0.04 | 78 | 1015.5 |
| 20260903033821 | 82 | 173 | 0.0 | 0.0 | 0.00 | 0.05 | 0.04 | 78 | 1015.6 |
| 20260903033330 | 82 | 173 | 0.0 | 0.0 | 0.00 | 0.05 | 0.04 | 78 | 1015.6 |
| 20260903032817 | 82 | 173 | 0.0 | 0.0 | 0.00 | 0.05 | 0.04 | 78 | 1015.6 |
| 20260903032306 | 82 | 173 | 0.0 | 0.0 | 0.00 | 0.05 | 0.04 | 77 | 1015.5 |
| 20260903031813 | 83 | 173 | 0.0 | 0.0 | 0.00 | 0.05 | 0.04 | 77 | 1015.6 |
| 20260903031322 | 83 | 173 | 0.0 | 0.0 | 0.00 | 0.05 | 0.04 | 77 | 1015.6 |
| 20260903030810 | 83 | 173 | 0.0 | 0.0 | 0.00 | 0.05 | 0.04 | 77 | 1015.5 |
| 20260903030319 | 83 | 173 | 0.0 | 0.0 | 0.00 | 0.05 | 0.04 | 76 | 1015.5 |
| 20260903025807 | 83 | 173 | 0.0 | 0.0 | 0.00 | 0.05 | 0.04 | 76 | 1015.6 |
| 20260903025316 | 83 | 173 | 0.0 | 0.0 | 0.00 | 0.05 | 0.04 | 76 | 1015.7 |
| 20260903024808 | 83 | 173 | 0.0 | 0.0 | 0.00 | 0.05 | 0.04 | 76 | 1015.6 |
| 20260903024316 | 83 | 173 | 0.0 | 0.0 | 0.00 | 0.05 | 0.04 | 76 | 1015.5 |